Kyiv, Ukraine

6:11 PM EEST on July 23, 2018 (GMT +0300)
Zhuliany

Weather History for UKKK - April, 2018

Change the Weather History Date:

Tuesday, April 17, 2018

  Actual Average (UKBB) Record (UKBB)
Temperature  
Mean Temperature 58 °F -  
Max Temperature 68 °F 56 °F 75 °F (2016)
Min Temperature 48 °F 37 °F 30 °F (2003)
Degree Days  
Heating Degree Days 7    
Growing Degree Days 8 (Base 50)    
Moisture  
Dew Point 39 °F    
Average Humidity 49    
Maximum Humidity 62    
Minimum Humidity 25    
Precipitation  
Precipitation 0.00 in 0.07 in - ()
Sea Level Pressure  
Sea Level Pressure 30.06 in    
Wind  
Wind Speed 6 mph ()    
Max Wind Speed 9 mph    
Max Gust Speed -    
Visibility 10.8 miles    
Events      
Averages and records for this station are not official NWS values.
T = Trace of Precipitation, MM = Missing Value Source: Averaged Metar Reports

Daily Weather History Graph

Daily Weather History Graph

Search for Another Location

Airport or City:

Astronomy

Apr. 17, 2018 Rise Set
Actual Time 6:00 AM EEST 7:55 PM EEST
Civil Twilight 5:26 AM EEST 8:30 PM EEST
Nautical Twilight 4:43 AM EEST 9:13 PM EEST
Astronomical Twilight 3:55 AM EEST 10:02 PM EEST
Moon 7:08 AM EEST (4/17) 9:32 PM EEST (4/17)
Length of Visible Light 15h 04m
Length of Day
13h 54m
New Moon, 2% of the Moon is Illuminated
Apr 17
New Moon
Apr 23
First Quarter
Apr 30
Full
May 8
Last Quarter
May 15
New

Hourly Weather History & Observations

Time (EEST) Temp. Dew Point Humidity Pressure Visibility Wind Dir Wind Speed Gust Speed Precip Events Conditions
12:00 AM 58 °F 40 °F 40% 30.07 in 12 mi South 8.9 mph - -   Clear
12:00 AM 57.2 °F 39.2 °F 51% 30.06 in - SSW 6.7 mph - N/A   Clear
12:30 AM 57.2 °F 37.4 °F 48% 30.06 in - SSW 8.9 mph - N/A   Clear
1:00 AM 55.4 °F 37.4 °F 51% 30.06 in - SSW 6.7 mph - N/A   Clear
1:30 AM 53.6 °F 37.4 °F 54% 30.06 in - SSW 8.9 mph - N/A   Clear
2:00 AM 53.6 °F 37.4 °F 54% 30.06 in - SSW 6.7 mph - N/A   Clear
2:30 AM 53.6 °F 33.8 °F 47% 30.06 in - SW 6.7 mph - N/A   Clear
3:00 AM 53 °F 36 °F 40% 30.08 in 12 mi SSW 6.7 mph - -   Mostly Cloudy
3:00 AM 51.8 °F 33.8 °F 50% 30.06 in - SW 6.7 mph - N/A   Clear
3:30 AM 51.8 °F 33.8 °F 50% 30.06 in - SW 6.7 mph - N/A   Clear
4:00 AM 51.8 °F 32.0 °F 47% 30.06 in - SW 6.7 mph - N/A   Clear
4:30 AM 51.8 °F 32.0 °F 47% 30.06 in - SW 6.7 mph - N/A   Clear
5:00 AM 50.0 °F 32.0 °F 50% 30.06 in - SW 6.7 mph - N/A   Clear
5:30 AM 50.0 °F 32.0 °F 50% 30.06 in - SW 4.5 mph - N/A   Clear
6:00 AM 50 °F 34 °F 42% 30.07 in 12 mi SSW 4.5 mph - -   Overcast
6:00 AM 50.0 °F 33.8 °F 54% 30.06 in - SW 6.7 mph - N/A   Clear
6:30 AM 48.2 °F 33.8 °F 58% 30.06 in - SW 4.5 mph - N/A   Clear
7:00 AM 48.2 °F 35.6 °F 62% 30.06 in - SW 6.7 mph - N/A   Clear
7:30 AM 48.2 °F 35.6 °F 62% 30.06 in - SSW 4.5 mph - N/A   Clear
8:00 AM 50.0 °F 35.6 °F 58% 30.06 in - SW 4.5 mph - N/A   Clear
8:30 AM 50.0 °F 37.4 °F 62% 30.06 in - SW 4.5 mph - N/A   Clear
9:00 AM 50 °F 37 °F 50% 30.10 in 12 mi SW 4.5 mph - -   Partly Cloudy
9:00 AM 50.0 °F 37.4 °F 62% 30.06 in - SW 6.7 mph - N/A   Clear
9:30 AM 51.8 °F 37.4 °F 58% 30.06 in - SW 6.7 mph - N/A   Clear
10:00 AM 51.8 °F 37.4 °F 58% 30.06 in - SSW 6.7 mph - N/A   Clear
10:30 AM 55.4 °F 39.2 °F 54% 30.06 in - SSW 4.5 mph - N/A   Clear
11:00 AM 57.2 °F 39.2 °F 51% 30.06 in - SSW 6.7 mph - N/A   Clear
11:30 AM 57.2 °F 41.0 °F 55% 30.06 in - SW 6.7 mph - N/A   Clear
12:00 PM 59 °F 38 °F 34% 30.08 in 12 mi SSW 6.7 mph - -   Mostly Cloudy
12:00 PM 59.0 °F 41.0 °F 51% 30.06 in - SSW 6.7 mph - N/A   Clear
12:30 PM 60.8 °F 41.0 °F 48% 30.06 in - SSW 4.5 mph - N/A   Clear
1:00 PM 62.6 °F 39.2 °F 42% 30.06 in - SSW 6.7 mph - N/A   Clear
1:30 PM 62.6 °F 41.0 °F 45% 30.06 in - SW 8.9 mph - N/A   Clear
2:00 PM 64.4 °F 41.0 °F 42% 30.06 in - SW 8.9 mph - N/A   Clear
2:30 PM 64.4 °F 41.0 °F 42% 30.06 in - SW 8.9 mph - N/A   Clear
3:00 PM 65 °F 38 °F 25% 30.06 in 12 mi SSW 6.7 mph - -   Mostly Cloudy
3:00 PM 62.6 °F 41.0 °F 45% 30.06 in - SW 6.7 mph - N/A   Clear
3:30 PM 64.4 °F 41.0 °F 42% 30.06 in - SW 6.7 mph - N/A   Clear
4:00 PM 64.4 °F 42.8 °F 45% 30.04 in - SW 6.7 mph - N/A   Clear
4:30 PM 68.0 °F 42.8 °F 40% 30.04 in - SSW 6.7 mph - N/A   Clear
5:00 PM 68.0 °F 44.6 °F 43% 30.04 in - SW 8.9 mph - N/A   Clear
5:30 PM 68.0 °F 44.6 °F 43% 30.04 in - SW 8.9 mph - N/A   Clear
6:00 PM 68 °F 43 °F 28% 30.03 in 12 mi SW 8.9 mph - -   Scattered Clouds
6:00 PM 68.0 °F 42.8 °F 40% 30.04 in - WSW 8.9 mph - N/A   Clear
6:30 PM 66.2 °F 44.6 °F 46% 30.04 in - SW 6.7 mph - N/A   Clear
7:00 PM 66.2 °F 44.6 °F 46% 30.04 in - SW 4.5 mph - N/A   Clear
7:30 PM 66.2 °F 44.6 °F 46% 30.04 in - SW 6.7 mph - N/A   Clear
8:00 PM 64.4 °F 44.6 °F 49% 30.04 in - WSW 6.7 mph - N/A   Clear
8:30 PM 64.4 °F 44.6 °F 49% 30.04 in - SW 6.7 mph - N/A   Clear
9:00 PM 64 °F 43 °F 35% 30.05 in 12 mi SW 6.7 mph - -   Mostly Cloudy
9:00 PM 62.6 °F 44.6 °F 52% 30.06 in 5.6 mi WSW 8.9 mph - N/A   Unknown
9:30 PM 62.6 °F 44.6 °F 52% 30.06 in 6.2 mi WSW 6.7 mph - N/A   Unknown
10:00 PM 60.8 °F 44.6 °F 55% 30.06 in - WSW 6.7 mph - N/A   Clear
10:30 PM 60.8 °F 44.6 °F 55% 30.06 in - WSW 6.7 mph - N/A   Clear
11:00 PM 60.8 °F 44.6 °F 55% 30.06 in - WSW 6.7 mph - N/A   Clear
11:30 PM 59.0 °F 44.6 °F 59% 30.06 in - SW 4.5 mph - N/A   Clear